Location: Waco, TX
(31.5480°N, 97.1670°W)
Time: 09:45:39
(UTC-06:00)

ISS - Pass Details

Date: 13 February 2018
Orbit: 403 x 407 km, 51.6° (Epoch: 21 February)

Event Time Altitude Azimuth Distance (km) Brightness Sun altitude
Rises 20:04:25 0° 294° (WNW) 2,313 1.1 -24.1°
Reaches altitude 10° 20:07:08 10° 270° (W) 1,451 0.0 -24.6°
Maximum altitude 20:09:04 15° 233° (SW) 1,194 -0.8 -25.0°
Enters shadow 20:10:17 13° 208° (SSW) 1,303 -1.0 -25.3°
Drops below altitude 10° 20:10:59 10° 197° (SSW) 1,447 - -25.5°
Sets 20:13:41 0° 172° (S) 2,302 - -26.0°
